Погода в Газанджыке

Погода в Газанджыке : погода сейчас, прогноз погоды и архив. Всё, что Вы хотите узнать о погоде в Газанджыке!

Поиск расширенной информации на нашем сайте:

Другие новости

Новости СМИ2

Главная страница сайта

Новости сайта

03.07.2017

Напоминаем, что на нашем специализированном сайте Метеоцентр.Азия вы можете получить высокодетализированные автоматические прогнозы погоды по пунктам России, СНГ и мира в авиационном формате (включающие направление и скорость ветра, видимость, явления погоды, количество и форму облачности, нижнюю и верхнюю границу облачности).


Погода в Газанджыке - сегодня

Время (UTC), дата Ветер
(°,м/с) 
Видим.   Явления Облачность Т
(°С)
Тd
(°С)
f(%) Тe
(°С)
Pmin
(гПа)
dP
(гПа)
Po
(мм)
O2
(г/м3)
Тmin Tmax R s Состояние
почвы
15 18.11.18 120 (ЮВ) 10 км    10/10 1000 м 
[Sc]
+11.6 +0.9 48 +12  1021.6  -0.1  763  295    +12.2       
18 18.11.18 360 (С) 10 км  слаб. ливневой дождь  10/10 1000 м кучево-дожд. 
[Cb cap]
+9.7 +3 63 +10  1021.7  0.1  763  297    +12.2       
21 18.11.18 140 (ЮВ) 10 км  слаб. ливневой дождь  10/10 1000 м кучево-дожд. 
[Cb cap]
+7.3 +6.4 94 +8  1022.6  0.8  764  299           
00 19.11.18 300 (СЗ) 10 км  {ливн. осадки}  10/10 1000 м 
[Sc]
+7.2 +6.8 97 +8  1021.3  -1.3  763  298           
03 19.11.18 тихо ()   10 км  в посл. час ливневой дождь  10/10 600 м 
[Sc]
+7.6 +7 96 +8  1022.7  1.5  764  298      10     
06 19.11.18 310 (СЗ) 20000 м  {ливн. осадки}  8/8 1000 м 
[Sc]
+9.1 +7 87 +10  1024.3  1.6  765  297  +6.9         
09 19.11.18 300 (СЗ) 20000 м    3/3 1000 м 
[Sc]
+11.4 +0.4 47 +12  1024.4  0.1  765  296           
12 19.11.18 070 (В) 20000 м    3/1 1000 м верхняя 
[Cu hum|Ci fib]
+12.1 +2.1 50 +13  1024.7  0.3  765  295           
15 19.11.18 170 (Ю) 10 км    1/0 верхняя 
[Ci fib]
+9.1 +4.6 73 +9  1025.7  766  298    +13.3       
18 19.11.18 160 (Ю) 10 км    ясно 
+8.7 +4 72 +9  1026  0.3  766  299    +13.3       
21 19.11.18 тихо ()   10 км    ясно 
+4.8 +3.3 90 +5  1025.9  -0.2  766  303           
00 20.11.18 тихо ()   10 км    ясно 
+4.4 +2.9 90 +4  1025.9  766  303           
03 20.11.18 100 (В) 20000 м    8/8 1000 м 
[Sc]
+7.8 +3 72 +7  1026  0.2  766  300           
06 20.11.18 070 (В) 20000 м    ясно 
+11.1 +5.1 66 +10  1024.3  -1.7  765  295  +3.6         
09 20.11.18 100 (В) 20000 м    3/0 верхняя 
[Ci fib]
+13.8 +4.5 53 +13  1022.8  -1.5  764  292           
12 20.11.18 110 (В) 20000 м    9/0 верхняя 
[Cs]
+12.8 +4.5 57 +12  1021.5  -1.3  763  293           
15 20.11.18 100 (В) 10 км    3/0 верхняя 
[Ci fib]
+9.2 +5.1 75 +9  1019.9  -1.6  762  296    +14.5       
18 20.11.18 060 (СВ) 10 км    9/9 1000 м 
[Sc]
+8.6 +5.5 81 +7  1019  -0.9  761  296    +14.5       
21 20.11.18 070 (В) 10 км    10/10 600 м 
[Sc]
+7.2 +4.6 84 +6  1016.6  -2.4  759  297           
00 21.11.18 090 (В) 10 км    10/10 300 м 
[Ns]
+6.3 +5.6 95 +5  1014.7  -2  758  298           
03 21.11.18 210 (ЮЗ) 1000 м  дымка  10/10 300 м 
[St]
+6 +5.6 97 +7  1014.3  -0.4  758  298           
06 21.11.18 260 (З) 0500 м  туман  10/10 300 м 
[St]
+6.7 +5.8 94 +8  1014.4  0.1  758  297  +5.8         
09 21.11.18 030 (СВ) 20000 м    8/0 средняя 
[Ac As]
+11.4 +8.4 82 +13  1011.9  -2.4  756  291           
12 21.11.18 250 (З) 20000 м  {туман}  8/8 1000 м 
[Cu Sc]
+14.9 +4.3 49 +14  1010.9  -0.9  755  288           
15 21.11.18 260 (З) 10 км    9/9 1000 м 
[Cu Sc]
+13.4 +9 75 +13  1013.7  2.8  757  289    +15.5       
Время (UTC), дата Ветер
(°,м/с) 
Видим.   Явления Облачность Т
(°С)
Тd
(°С)
f(%) Тe
(°С)
Pmin
(гПа)
dP
(гПа)
Po
(мм)
O2
(г/м3)
Тmin Tmax R s Состояние
почвы

Для получения пояснительной информации подведите курсор к названию столбца.

ПОГОДА в Газанджыке - архив

Всё, что Вы хотите узнать о погоде в Газанджыке - удобно и подробно!

Выберите нужную дату (начиная с 1 января 2015* года) и нажмите кнопку "Найти".
Будут отображены архивные сводки погоды по пункту Газанджык, начиная с указанной даты.


Отображать данные в формате CSV (для использования в таблицах Excel)


Внимание! Наш архив погоды предназначен исключительно для личного некоммерческого использования в познавательных целях. Если Вам необходимы официальные справки о состоянии погоды (для производственных, юридических, коммерческих и т.п. целей), обращайтесь в органы Росгидромета.

*Примечание: данная дата относится к архиву по метеостанциям СССР (Россия, СНГ, Балтия).
Архив по метеостанциям Зарубежной Европы и Азии (кроме Китая) хранится 10 дней, по другим регионам земного шара (Китай, Африка, Америка, Австралия, Океания) - 1 день.

Газанджык - район местоположения метеостанции


Название, широта, долгота, высота метеостанции:
Газанджык 39.2°ш. 55.5°д. 31 м над ур. моря [Туркменистан]

Дополнительная информация

В oтличие oт бoльшинства пoгoдных сайтoв мы публикуем пoдрoбную метеoинфoрмацию в детальнoм прoфессиoнальнoм фoрмате.

Характеристики температуры и влажнoсти вoздуха измеряются на высoте 2 м в тени вдали oт зданий и деревьев.
Скoрoсть ветра измеряется на высoте 10 м (на урoвне рoста челoвека скoрoсть ветра ниже в 1.5-2 раза). Если метеoстанция нахoдится в гoрoде или в лесу, тo скoрoсть ветра занижена на 2-4 м/с пo сравнению с oткрытым местoм. Скoрoсть ветра над акватoриями крупных рек и oзёр, а также на вершинах хoлмoв на 2-5 м/с выше, чем в oбычных услoвиях.
Атмoсфернoе давление в разных тoчках местнoсти мoжет значительнo oтличаться oт давления на метеoстанции, в зависимoсти oт услoвий рельефа (при пoдъёме на 10 м давление пoнижается примернo на 1 мм рт.ст.).